{"data":{"norad_id":68336,"intl_designator":"2026-059R","name":"STARLINK-37143","alt_names":[],"object_type":"PAYLOAD","status":"ACTIVE","operator":null,"country":"US","launch_date":"2026-03-22","launch_site_code":"AFETR","launch_vehicle":null,"mission":null,"orbit_class":"UNKNOWN","rcs_meters":null,"size_class":null,"mass_kg":null,"dimensions":null,"purposes":["comms"],"wikipedia_slug":null,"has_3d_model":false,"image_url":null,"decayed_at":null,"tle_current":{"epoch":"2026-05-24T21:39:22.463712Z","epoch_age_seconds":80797,"freshness":"FRESH","line1":"1 68336U 26059R   26144.90234333  .00003023  00000+0  11419-3 0  9998","line2":"2 68336  53.1599 354.3062 0001191  65.4955 294.6169 15.30192954  9846","mean_motion":15.30192954,"eccentricity":0.0001191,"inclination_deg":53.1599,"raan_deg":354.3062,"arg_perigee_deg":65.4955,"mean_anomaly_deg":294.6169,"bstar":0.00011419,"rev_number":984,"period_min":94.10577902844,"perigee_km":474.41987084889,"apogee_km":476.05234432311,"semimajor_km":6853.373107586,"source":"CELESTRAK","updated_at":"2026-05-25T13:38:21.924753Z"}}}